EW0352 Weather Reports


Display with metric or nautical units.
time (UTC)temp
F
wind
direction
speed
MPH
gust
MPH
rain 1hr
in
rain 24hr
in
rain mn
in
humidity
%
barometer
mb
20230206151657 25 140 5.0 10.0 0.00 0.00 0.00 83 1013.4
20230206150757 24 133 3.0 8.0 0.00 0.00 0.00 84 1013.5
20230206145857 24 121 3.0 9.0 0.00 0.00 0.00 85 1013.6
20230206144057 22 126 4.0 9.0 0.00 0.00 0.00 86 1013.9
20230206143157 22 126 3.0 9.0 0.00 0.00 0.00 87 1014.1
20230206142257 21 127 2.0 5.0 0.00 0.00 0.00 87 1014.3
20230206141357 20 107 1.0 3.0 0.00 0.00 0.00 88 1014.4
20230206140457 19 115 2.0 3.0 0.00 0.00 0.00 88 1014.4
20230206135557 19 104 2.0 4.0 0.00 0.00 0.00 88 1014.4
20230206134657 19 101 1.0 3.0 0.00 0.00 0.00 88 1014.6
20230206133757 18 113 2.0 5.0 0.00 0.00 0.00 88 1014.8
20230206132857 18 108 2.0 3.0 0.00 0.00 0.00 87 1014.8
20230206131957 18 103 2.0 4.0 0.00 0.00 0.00 87 1014.9
20230206131057 19 105 2.0 4.0 0.00 0.00 0.00 87 1015.1
20230206130157 19 119 2.0 5.0 0.00 0.00 0.00 87 1015.2
20230206125257 19 94 1.0 3.0 0.00 0.00 0.00 87 1015.1
20230206123457 20 122 2.0 4.0 0.00 0.00 0.00 87 1015.5
20230206122557 20 134 3.0 8.0 0.00 0.00 0.00 87 1015.6
20230206121657 19 132 4.0 8.0 0.00 0.00 0.00 88 1015.7
20230206120757 19 131 4.0 9.0 0.00 0.00 0.00 88 1015.8
20230206115857 19 130 3.0 8.0 0.00 0.00 0.00 88 1015.9
20230206114957 18 124 2.0 4.0 0.00 0.00 0.00 88 1015.9
20230206114057 18 118 1.0 2.0 0.00 0.00 0.00 87 1016.0
20230206112257 19 119 1.0 4.0 0.00 0.00 0.00 88 1016.3
20230206111357 19 125 2.0 5.0 0.00 0.00 0.00 88 1016.2
20230206110457 19 124 3.0 7.0 0.00 0.00 0.00 89 1016.1
20230206105557 18 131 3.0 8.0 0.00 0.00 0.00 90 1016.5
20230206104657 18 127 3.0 8.0 0.00 0.00 0.00 91 1016.6
20230206103757 16 114 2.0 4.0 0.00 0.00 0.00 90 1016.7
20230206102857 16 109 1.0 3.0 0.00 0.00 0.00 88 1017.0
20230206101957 16 0 0.0 1.0 0.00 0.00 0.00 88 1017.1
20230206101057 17 0 0.0 2.0 0.00 0.00 0.00 88 1017.4
20230206100157 17 90 1.0 3.0 0.00 0.00 0.00 89 1017.2
20230206095257 17 89 1.0 3.0 0.00 0.00 0.00 89 1017.3
20230206094357 17 111 1.0 3.0 0.00 0.00 0.00 89 1017.4
20230206093459 17 109 2.0 4.0 0.00 0.00 0.00 89 1017.4
20230206092557 17 102 2.0 4.0 0.00 0.00 0.00 90 1017.5
20230206091657 17 98 1.0 3.0 0.00 0.00 0.00 90 1017.9
20230206090758 17 116 1.0 4.0 0.00 0.00 0.00 90 1018.1
20230206085857 17 131 1.0 2.0 0.00 0.00 0.00 89 1018.3
20230206084058 17 126 2.0 4.0 0.00 0.00 0.00 89 1018.6
20230206083157 17 115 1.0 4.0 0.00 0.00 0.00 90 1018.7
20230206082258 17 114 1.0 3.0 0.00 0.00 0.00 89 1018.8
20230206080458 18 114 1.0 3.0 0.00 0.00 0.00 90 1018.9
20230206075558 17 118 2.0 7.0 0.00 0.00 0.00 91 1018.9
20230206074658 17 111 1.0 7.0 0.00 0.00 0.00 90 1019.0
20230206073758 18 96 1.0 2.0 0.00 0.00 0.00 90 1018.9
20230206072858 18 96 1.0 3.0 0.00 0.00 0.00 91 1018.9
20230206071958 17 106 1.0 3.0 0.00 0.00 0.00 92 1018.9
20230206071058 17 147 1.0 3.0 0.00 0.00 0.00 92 1018.9
20230206070158 16 271 1.0 3.0 0.00 0.00 0.00 91 1018.9
20230206065258 15 0 0.0 3.0 0.00 0.00 0.00 90 1018.9
20230206064358 15 0 0.0 1.0 0.00 0.00 0.00 90 1019.1
20230206063458 16 0 0.0 0.0 0.00 0.00 0.00 90 1019.4
20230206062558 16 0 0.0 0.0 0.00 0.00 0.00 90 1019.5
20230206061658 16 0 0.0 0.0 0.00 0.00 0.00 90 1019.5
20230206060758 16 0 0.0 1.0 0.00 0.00 0.00 90 1019.5
20230206054958 16 0 0.0 0.0 0.00 0.00 0.00 90 1019.6
20230206054058 16 0 0.0 1.0 0.00 0.00 0.00 90 1019.6
20230206053159 16 0 0.0 0.0 0.00 0.00 0.00 89 1019.8
20230206052258 16 0 0.0 1.0 0.00 0.00 0.00 89 1019.7
20230206051358 16 0 0.0 1.0 0.00 0.00 0.00 88 1019.8
20230206045559 17 0 0.0 1.0 0.00 0.00 0.00 89 1019.9
20230206044658 17 0 0.0 1.0 0.00 0.00 0.00 88 1019.9
20230206043758 17 0 0.0 1.0 0.00 0.00 0.00 88 1020.0
20230206042858 18 0 0.0 0.0 0.00 0.00 0.00 88 1020.0
20230206041958 18 0 0.0 0.0 0.00 0.00 0.00 88 1019.8
20230206041058 18 0 0.0 0.0 0.00 0.00 0.00 87 1019.8
20230206040158 18 0 0.0 1.0 0.00 0.00 0.00 87 1019.8
20230206035258 18 0 0.0 2.0 0.00 0.00 0.00 86 1019.8
20230206034358 19 0 0.0 0.0 0.00 0.00 0.00 85 1019.5
20230206033458 19 0 0.0 2.0 0.00 0.00 0.00 86 1019.4
20230206032558 20 0 0.0 1.0 0.00 0.00 0.00 86 1019.4
20230206031658 20 0 0.0 1.0 0.00 0.00 0.00 85 1019.5
20230206030758 20 0 0.0 1.0 0.00 0.00 0.00 85 1019.4
20230206025858 20 249 1.0 2.0 0.00 0.00 0.00 85 1019.3
20230206024959 20 232 1.0 3.0 0.00 0.00 0.00 84 1019.3
20230206024059 21 231 1.0 3.0 0.00 0.00 0.00 84 1019.3
20230206023158 21 232 1.0 3.0 0.00 0.00 0.00 83 1019.1
20230206022258 21 230 1.0 3.0 0.00 0.00 0.00 83 1019.0
20230206021358 21 0 0.0 1.0 0.00 0.00 0.00 82 1018.9
20230206020458 22 220 1.0 2.0 0.00 0.00 0.00 82 1018.9
20230206012858 22 236 1.0 3.0 0.00 0.00 0.00 80 1019.0
20230206011958 23 238 1.0 2.0 0.00 0.00 0.00 80 1019.1
20230206011058 23 0 0.0 0.0 0.00 0.00 0.00 79 1018.9
20230206010158 24 0 0.0 1.0 0.00 0.00 0.00 78 1018.8
20230206005300 24 0 0.0 1.0 0.00 0.00 0.00 78 1019.0
20230206004358 24 0 0.0 1.0 0.00 0.00 0.00 77 1019.1
20230206002558 25 0 0.0 2.0 0.00 0.00 0.00 75 1018.8
20230206001658 26 244 1.0 3.0 0.00 0.00 0.00 75 1018.8
20230206000758 26 243 1.0 3.0 0.00 0.00 0.00 75 1018.8
20230205234958 27 251 2.0 4.0 0.00 0.00 0.00 74 1018.6
20230205234059 27 248 2.0 3.0 0.00 0.00 0.00 73 1018.5
20230205233158 28 234 2.0 4.0 0.00 0.00 0.00 72 1018.4
20230205232259 28 243 2.0 4.0 0.00 0.00 0.00 71 1018.3
20230205224659 30 261 2.0 6.0 0.00 0.00 0.00 68 1017.8
20230205223759 30 273 2.0 4.0 0.00 0.00 0.00 68 1017.7
20230205221958 30 254 3.0 7.0 0.00 0.00 0.00 67 1017.7
20230205221059 30 258 3.0 8.0 0.00 0.00 0.00 67 1017.8
20230205220159 31 260 4.0 8.0 0.00 0.00 0.00 67 1017.9
20230205214359 31 260 3.0 7.0 0.00 0.00 0.00 66 1017.5
20230205213459 31 263 3.0 7.0 0.00 0.00 0.00 66 1017.5
20230205212559 31 256 3.0 6.0 0.00 0.00 0.00 65 1017.5
20230205211659 31 276 3.0 8.0 0.00 0.00 0.00 65 1017.5
20230205210759 32 269 4.0 8.0 0.00 0.00 0.00 65 1017.4
20230205205859 32 298 3.0 7.0 0.00 0.00 0.00 65 1017.3
20230205204959 32 291 2.0 6.0 0.00 0.00 0.00 65 1017.2
20230205204059 32 284 3.0 8.0 0.00 0.00 0.00 65 1017.0
20230205202259 32 295 4.0 8.0 0.00 0.00 0.00 65 1017.0
20230205201359 32 295 4.0 9.0 0.00 0.00 0.00 65 1016.9
20230205195559 32 287 3.0 8.0 0.00 0.00 0.00 65 1016.8
20230205194659 32 270 3.0 7.0 0.00 0.00 0.00 66 1016.7
20230205193759 31 270 3.0 8.0 0.00 0.00 0.00 66 1016.6
20230205192859 31 288 2.0 4.0 0.00 0.00 0.00 66 1016.6
20230205191959 30 302 3.0 7.0 0.00 0.00 0.00 67 1016.7
20230205191059 30 327 4.0 9.0 0.00 0.00 0.00 67 1016.7
20230205190159 31 316 3.0 8.0 0.00 0.00 0.00 67 1016.8
20230205185259 31 336 3.0 8.0 0.00 0.00 0.00 67 1016.9
20230205184359 30 313 4.0 10.0 0.00 0.00 0.00 70 1016.9
20230205183459 30 313 4.0 8.0 0.00 0.00 0.00 69 1017.0
20230205182600 29 297 5.0 11.0 0.00 0.00 0.00 70 1017.2
20230205181659 29 310 3.0 11.0 0.00 0.00 0.00 70 1017.3
20230205174959 28 322 2.0 8.0 0.00 0.00 0.00 73 1016.8
20230205172259 27 357 3.0 9.0 0.00 0.00 0.00 75 1016.8
20230205171359 27 330 4.0 9.0 0.00 0.00 0.00 75 1016.9
20230205170459 27 314 4.0 8.0 0.00 0.00 0.00 75 1016.8
20230205165559 27 314 5.0 10.0 0.00 0.00 0.00 76 1016.6
20230205163759 26 310 5.0 10.0 0.00 0.00 0.00 76 1016.3
20230205162859 26 294 5.0 10.0 0.00 0.00 0.00 77 1016.4
20230205161959 26 303 5.0 10.0 0.00 0.00 0.00 77 1016.1
20230205161059 25 311 4.0 9.0 0.00 0.00 0.00 78 1015.9
20230205160159 25 345 4.0 9.0 0.00 0.00 0.00 78 1016.0
20230205155259 25 325 4.0 8.0 0.00 0.00 0.00 79 1015.8
20230205152559 24 336 3.0 9.0 0.00 0.00 0.00 81 1015.2